Regional Weather Roundup
Issued by NWS

Home | Current Version | Previous Version | Graphics & Text | Print | Product List | Glossary Off
Versions: 1 2 3 4 5 6 7 8 9 10 11 12 13 14 15 16 17 18 19 20 21 22 23 24 25 26 27 28 29 30 31 32 33 34 35 36 37 38 39 40 41 42 43 44 45 46 47 48 49 50

000
ASUS44 KMEG 250310
RWRTN
TENNESSEE HOURLY STATE WEATHER ROUNDUP
NATIONAL WEATHER SERVICE MEMPHIS TN
1000 PM CDT WED MAY 24 2017

TNZ002-004-019-021-049-052-054-088>092-250400-
WEST TENNESSEE

CITY           SKY/WX    TMP DP  RH WIND       PRES   REMARKS
MEMPHIS INTL   PTCLDY    58  51  78 W5        29.65R
NWS MEMPHIS      N/A     55 N/A N/A MISG        N/A
JACKSON        CLOUDY    59  50  72 W8        29.62R
DYERSBURG        N/A    N/A N/A N/A MISG        N/A
COVINGTON      CLEAR     59  50  72 W5        29.63R
UNION CITY     PTCLDY    57  52  82 W7        29.59R
BOLIVAR        PTCLDY    55  48  76 CALM      29.63R
PARIS          PTCLDY    57  52  82 W6        29.57R
HUNTINGDON     CLOUDY    57  54  88 W3        29.58S
LEXINGTON      MOCLDY    59  52  77 MISG      29.60R
SELMER         CLOUDY    55  54  94 W6        29.62R
SAVANNAH       CLOUDY    57  55  94 SW5       29.62R
$$

TNZ008-025-027-028-033-062-065-066-250400-
NORTH MIDDLE TENNESSEE

CITY           SKY/WX    TMP DP  RH WIND       PRES   REMARKS
NASHVILLE      CLOUDY    58  52  80 NW6       29.58R
PORTLAND       CLOUDY    55  52  88 SW3       29.55R
CLARKSVILLE    LGT RAIN  57  55  93 SW5       29.57R FOG
SMYRNA         CLOUDY    57  55  93 SW3       29.59R
COOKEVILLE     CLOUDY    50  50 100 CALM      29.57R
GALLATIN       CLOUDY    57  54  88 CALM      29.59R
CROSSVILLE     CLEAR     50  48  93 W7        29.59R
$$

TNZ061-075-076-078-094-096-097-250400-
SOUTH MIDDLE TENNESSEE

CITY           SKY/WX    TMP DP  RH WIND       PRES   REMARKS
FAYETTEVILLE   CLOUDY    55  54  94 W10       29.61R
TULLAHOMA      MOCLDY    55  54  94 NW9       29.62R
WINCHESTER     MOCLDY    55  55 100 W8          N/A
COLUMBIA       MOCLDY    55  54  94 SW3       29.58R
SHELBYVILLE    MOCLDY    54  54 100 CALM      29.59R FOG
$$

TNZ017-018-042-046-047-250400-
NORTHEAST TENNESSEE

CITY           SKY/WX    TMP DP  RH WIND       PRES   REMARKS
TRI CITIES     CLOUDY    59  58  96 CALM      29.53R
ELIZABETHTON   CLOUDY    59  59 100 CALM      29.54R
$$

TNZ012-013-036-069-073-074-250400-
CENTRAL EAST TENNESSEE

CITY           SKY/WX    TMP DP  RH WIND       PRES   REMARKS
KNOXVILLE      PTCLDY    59  50  72 W10       29.56R
OAK RIDGE      CLEAR     58  49  72 W3        29.57R
DOWNTOWN KNOXV MOCLDY    59  52  77 W9        29.56R
GATLINBURG     CLOUDY    61  52  72 W7        29.55R
MORRISTOWN     CLOUDY    59  54  82 W10       29.54R
JACKSBORO      MOCLDY    57  48  72 SW6       29.58R
$$

TNZ083-085-099-250400-
SOUTHEAST TENNESSEE

CITY           SKY/WX    TMP DP  RH WIND       PRES   REMARKS
CHATTANOOGA    PTCLDY    58  52  80 W3        29.59R
$$

SKY/WX REPORTED AS FAIR MEANS FEW OR NO CLOUDS BELOW
12 THOUSAND FEET.





USA.gov is the U.S. government's official web portal to all federal, state and local government web resources and services.